Location: Hastringsfeld
(50.9620°N, 10.4787°E)
Time: 17:41:57
(UTC+00:00)

ATLAS 3B R/B - Pass Details

Date: 01 May 2024
Orbit: 943 x 1251 km, 63.8° (Epoch: 17 May)

Event Time Altitude Azimuth Distance (km) Brightness Sun altitude
Rises 19:15:51 0° 273° (W) 4,002 6.9 -5.7°
Reaches altitude 10° 19:18:50 10° 283° (WNW) 3,087 6.5 -6.1°
Maximum altitude 19:25:31 34° 347° (NNW) 1,891 4.6 -6.9°
Drops below altitude 10° 19:32:31 10° 50° (NE) 3,225 5.1 -7.8°
Sets 19:35:42 0° 60° (ENE) 4,203 5.6 -8.2°
